Weather in Serebryanyye Klyuchi

Russia / Tula Oblast     54°14′59″N   37°55′18″E
temp.,
°C
wind,
m/s
gust,
m/s
humid.,
%
clouds,
%
prec.,
mm/h
press.,
hPa
HPBL,
m
24 may, tue
tue2400:00+5wnw487564 0.0 1006105
03:00+3wnw4869100 0.0 1006132
06:00+5wnw2571100 0.0 1006129
09:00+10wnw5856100 0.0 1006608
12:00+11nw71043100 0.0 10071621
15:00+12nw8103992 0.0 10082205
18:00+9nne677082 0.0 1010837
21:00+5n348184 0.0 101276
25 may, wed
wed2500:00+3n348164 0.0 101386
03:00+1n34925 0.0 101559
06:00+2n348433 0.0 1016165
09:00+7nnw456356 0.0 10161204
12:00+8nw4558100 0.0 10161420
15:00+9nw4658100 0.0 10161547
18:00+10wnw3565100 0.0 10161164
21:00+7wsw237718 0.0 101550
26 may, thu
thu2600:00+5wsw339133 0.0 101539
03:00+4ssw3594100 0.0 101472
06:00+6sw2591100 0.0 1012139
09:00+12wsw4776100 0.0 1010349
12:00+18sw685398 0.1 10081729
15:00+14sw91276100 0.9 10071133
18:00+10sse51296100 1.6 1004764
21:00+10w5998100 3.0 1003527
27 may, fri
fri2700:00+10w71295100 1.0 1002767
03:00+8wsw5119623 1.1 1003299
06:00+10wsw71397100 1.4 1001635
09:00+11w9138498 3.1 10021135
12:00+10w81386100 0.1 1004880
15:00+14w812705 0.7 10041589
18:00+14w7126720 0.1 10051197
21:00+9sw488079 0.1 1006138
28 may, sat
sat2800:00+9sw51184100 0.1 1004282
03:00+10ssw61394100 1.2 1001616
06:00+9nw4897100 3.8 1000364
09:00+12wsw798382 4.3 1001986
12:00+14w811555 0.4 10021904
15:00+13wsw7106154 0.6 10031478
18:00+12wsw6975100 0.6 10051146
21:00+8sw41083100 0.7 1006292